CZ-6A DEB, 55225

Orbit data source: Space-Track

CZ-6A DEB, 55225 is space debris in SSO originally from a launch on Fri, 11 Nov 2022 UTC launched from the Taiyaun Space Center, China (TSC). Debris objects in space refer to the collection of defunct objects orbiting the Earth. Examples of debris include non-operational satellites, rocket bodies, and fragments generated from explosions, collisions, or faulty payload assembly.

Loading next visibility...
Identifier
55225, 2022-151WS
Orbit
SSO
Country
Flag of CNCN / PRC
Related business
Manufacturer
SAST
Mission
Spacecraft
Bus & Motor
Unknown
Mass
Unknown
Launch date (UTC)
2022-11-11 (4 years ago)
Launch vehicle
Unknown
Launch site
Taiyaun Space Center, China (TSC)
Object type
Payload
Rocket body
Debris
Shape & HBR
Unknown shape, 0.1 m
Radar Cross Section
Small (<0.1 m²)

Expand to show TLE details & history
Last TLE update: 2 days ago

TLE from 2 days ago
0 CZ-6A DEB
1 55225U 22151WS  26171.15163989  .00005425  00000-0  10428-2 0  9992
2 55225  98.7284 239.0867 0121388 358.6621   1.4235 14.59449121184286
Epoch: 2026-06-20T03:38Z
TLE epoch observation values (Epoch: 2026-06-20T03:38:21.686Z)
Latitude
-0.00003°
Longitude
-83.87403°
Altitude
612.072 km
Speed
7.599 km/s
True Right ascension
15h 56m 20s
True Declination
0° 00' 00"
Sunlit
Object was in full shadow at epoch
Visualization orbit readout
Latitude
Unknown
Longitude
Unknown
Altitude
Unknown
Speed
Unknown
Apparent Right ascension
Unknown
Apparent Declination
Unknown
Sunlit
N/A
Visualization observer readout
Local Sidereal Time
23:09:14
Azimuth
Unknown
Elevation
Unknown
Doppler factor
Unknown
Orbital elements
Apogee altitude
777.883 km
Perigee altitude
606.236 km
Semi-major axis
7,070.197 km
Eccentricity
0.01214
Inclination
98.7284°
RAAN
239.0867°
Arg. of periapsis
358.6621°
True anomaly
1.45859°
Mean anomaly
1.4235°
Eccentric anomaly
1.44099°
Mean motion
3.65087 °/min
Orbital period
98.61 mins
BSTAR
0.0010428
Loading maneuver chart data...
Computing Atmospheric mass density...

Documentation

Showing up to 5 results
|